DW0796 Weather Reports


Display with metric or nautical units.
time (UTC)temp
F
wind
direction
speed
MPH
gust
MPH
rain 1hr
in
rain 24hr
in
rain mn
in
humidity
%
barometer
mb
20171217135410 31 252 0.0 0.0 0.00 0.06 0.01 95 1016.1
20171217134408 31 252 0.0 0.0 0.00 0.06 0.01 95 1016.1
20171217133410 31 252 1.0 3.0 0.00 0.06 0.01 95 1016.1
20171217132408 30 258 0.0 3.0 0.00 0.06 0.01 95 1016.0
20171217131408 30 315 3.0 7.0 0.00 0.06 0.01 95 1016.0
20171217130408 31 283 2.0 5.0 0.00 0.06 0.01 96 1015.9
20171217125408 31 304 0.0 5.0 0.00 0.06 0.01 96 1015.9
20171217123409 31 83 2.0 3.0 0.00 0.06 0.01 96 1015.8
20171217122408 31 84 0.0 2.0 0.00 0.06 0.01 96 1015.8
20171217121409 31 84 0.0 3.0 0.00 0.06 0.01 97 1015.8
20171217120409 31 84 0.0 2.0 0.00 0.06 0.01 96 1015.8
20171217115409 30 84 0.0 3.0 0.00 0.06 0.01 96 1015.8
20171217114408 30 84 1.0 2.0 0.00 0.06 0.01 96 1015.8
20171217113408 30 84 0.0 2.0 0.00 0.06 0.01 96 1015.7
20171217112408 30 84 0.0 2.0 0.00 0.06 0.01 96 1015.8
20171217111409 30 84 0.0 2.0 0.00 0.06 0.01 96 1015.6
20171217110409 30 84 0.0 1.0 0.00 0.06 0.01 97 1015.6
20171217105409 30 84 0.0 0.0 0.00 0.06 0.01 97 1015.6
20171217104408 30 84 0.0 2.0 0.00 0.06 0.01 96 1015.7
20171217103409 30 84 0.0 1.0 0.00 0.06 0.01 96 1015.5
20171217101408 30 84 0.0 2.0 0.00 0.06 0.01 96 1015.4
20171217100408 30 84 0.0 0.0 0.00 0.06 0.01 96 1015.2
20171217095409 30 84 0.0 0.0 0.00 0.06 0.01 96 1015.1
20171217094408 29 84 0.0 0.0 0.00 0.06 0.01 96 1015.2
20171217093408 29 84 0.0 0.0 0.00 0.06 0.01 97 1015.0
20171217092408 28 84 0.0 0.0 0.00 0.06 0.01 96 1014.8
20171217091409 28 84 0.0 0.0 0.00 0.06 0.01 97 1014.8
20171217085408 28 84 0.0 0.0 0.00 0.06 0.01 97 1014.4
20171217084408 27 84 0.0 0.0 0.00 0.06 0.01 97 1014.3
20171217083408 26 84 0.0 0.0 0.00 0.06 0.01 97 1014.0
20171217082408 26 84 0.0 0.0 0.00 0.06 0.01 97 1014.0
20171217081409 26 84 0.0 0.0 0.00 0.06 0.01 97 1013.9
20171217080409 27 84 0.0 0.0 0.00 0.06 0.01 97 1013.7
20171217075408 27 84 0.0 2.0 0.00 0.06 0.01 97 1013.4
20171217074408 27 84 0.0 0.0 0.00 0.06 0.01 97 1013.2
20171217072408 26 84 0.0 0.0 0.00 0.06 0.01 97 1012.9
20171217071408 26 84 0.0 0.0 0.00 0.06 0.01 97 1012.7
20171217070409 26 84 0.0 0.0 0.00 0.06 0.01 96 1012.7
20171217065408 27 84 0.0 0.0 0.00 0.06 0.01 97 1012.5
20171217064409 27 84 0.0 0.0 0.00 0.06 0.01 97 1012.5
20171217063408 26 84 0.0 0.0 0.00 0.06 0.01 97 1012.3
20171217062409 26 84 0.0 0.0 0.00 0.06 0.01 97 1012.3
20171217061409 26 84 0.0 0.0 0.00 0.06 0.01 96 1012.2
20171217060409 26 84 0.0 0.0 0.00 0.06 0.01 97 1012.2
20171217055410 27 84 0.0 0.0 0.00 0.06 0.01 96 1011.9
20171217054408 27 84 0.0 0.0 0.00 0.06 0.01 96 1011.9
20171217053408 27 84 0.0 0.0 0.00 0.06 0.01 96 1011.6
20171217052408 27 84 0.0 0.0 0.00 0.06 0.01 96 1011.4
20171217051410 28 84 0.0 0.0 0.00 0.06 0.01 96 1011.3
20171217050409 28 84 0.0 0.0 0.00 0.06 0.01 96 1011.3
20171217045411 28 39 0.0 0.0 0.00 0.06 0.01 96 1011.2
20171217044410 29 11 0.0 0.0 0.00 0.06 0.01 97 1011.1
20171217043408 29 11 0.0 0.0 0.00 0.06 0.01 97 1011.1
20171217042409 29 11 0.0 0.0 0.00 0.06 0.01 97 1012.3
20171217040408 29 11 0.0 0.0 0.00 0.06 0.01 97 1010.5
20171217035408 29 0 0.0 0.0 0.00 0.06 0.01 97 1010.1
20171217034410 29 60 0.0 0.0 0.00 0.06 0.01 97 1009.9
20171217033408 29 52 0.0 0.0 0.00 0.06 0.01 97 1009.8
20171217032409 29 78 0.0 0.0 0.00 0.06 0.01 97 1009.7
20171217031410 29 79 0.0 0.0 0.00 0.06 0.01 97 1009.5
20171217030408 29 79 0.0 0.0 0.00 0.06 0.01 97 1009.4
20171217025409 29 58 0.0 0.0 0.00 0.06 0.01 97 1009.2
20171217024410 29 90 0.0 0.0 0.00 0.06 0.01 97 1008.9
20171217023408 29 81 0.0 0.0 0.00 0.06 0.01 97 1008.9
20171217022408 30 38 0.0 0.0 0.00 0.06 0.01 97 1008.7
20171217021410 30 37 0.0 0.0 0.00 0.06 0.01 97 1008.5
20171217020408 30 346 0.0 0.0 0.00 0.06 0.01 98 1008.4
20171217015410 31 349 0.0 0.0 0.00 0.06 0.01 97 1008.0
20171217013410 31 55 0.0 0.0 0.00 0.06 0.01 97 1007.8
20171217012408 31 44 0.0 0.0 0.00 0.06 0.01 98 1007.8
20171217011408 31 40 0.0 0.0 0.00 0.06 0.01 97 1007.4
20171217010409 31 69 0.0 0.0 0.01 0.06 0.01 97 1007.4
20171217005410 31 70 0.0 0.0 0.01 0.06 0.01 97 1007.1
20171217004408 31 70 0.0 0.0 0.01 0.06 0.01 97 1006.6
20171217003408 31 70 0.0 0.0 0.01 0.06 0.01 97 1006.6
20171217002409 31 70 0.0 0.0 0.01 0.06 0.01 97 1006.5
20171217001408 31 70 0.0 0.0 0.01 0.06 0.01 97 1006.4
20171217000409 32 38 0.0 0.0 0.00 0.06 0.00 97 1006.3
20171216235409 32 293 0.0 0.0 0.00 0.06 0.00 97 1006.1
20171216234408 31 293 0.0 0.0 0.00 0.06 0.00 97 1005.8
20171216232409 32 293 0.0 0.0 0.00 0.06 0.00 97 1005.5
20171216225408 32 293 0.0 0.0 0.02 0.06 0.06 97 1005.1
20171216224409 32 293 0.0 0.0 0.02 0.06 0.06 97 1005.0
20171216223410 32 293 0.0 0.0 0.02 0.06 0.06 97 1004.8
20171216222408 32 293 0.0 0.0 0.02 0.06 0.06 97 1004.8
20171216221409 32 293 0.0 0.0 0.01 0.05 0.05 97 1004.5
20171216220410 32 293 0.0 0.0 0.00 0.04 0.04 97 1004.5
20171216215409 32 293 0.0 0.0 0.00 0.04 0.04 97 1004.3
20171216214411 32 293 0.0 0.0 0.01 0.04 0.04 97 1004.3
20171216213409 32 293 0.0 0.0 0.01 0.04 0.04 97 1004.2
20171216212408 32 293 0.0 2.0 0.01 0.04 0.04 97 1004.1
20171216211408 32 293 2.0 3.0 0.01 0.04 0.04 97 1004.0
20171216210408 32 293 1.0 3.0 0.01 0.04 0.04 97 1004.0
20171216205408 32 293 1.0 3.0 0.02 0.04 0.04 97 1003.8
20171216204410 32 298 1.0 3.0 0.02 0.03 0.03 97 1003.8
20171216203408 32 275 0.0 0.0 0.02 0.03 0.03 97 1003.7
20171216202410 32 275 0.0 0.0 0.02 0.03 0.03 96 1003.7
20171216201409 32 275 1.0 5.0 0.02 0.03 0.03 96 1003.6
20171216200409 32 275 0.0 3.0 0.02 0.03 0.03 96 1003.6
20171216195408 32 275 2.0 3.0 0.01 0.02 0.02 96 1003.6
20171216194411 32 306 1.0 5.0 0.00 0.02 0.02 96 1003.4
20171216193408 32 320 0.0 0.0 0.00 0.02 0.02 96 1003.1
20171216192408 32 320 0.0 0.0 0.00 0.02 0.02 96 1003.1
20171216191409 32 320 0.0 0.0 0.00 0.02 0.02 96 1003.0
20171216190409 32 320 0.0 0.0 0.01 0.02 0.02 97 1002.9
20171216185408 32 320 0.0 0.0 0.01 0.02 0.02 97 1002.9
20171216184408 32 320 0.0 2.0 0.01 0.02 0.02 97 1002.8
20171216182408 32 320 0.0 2.0 0.01 0.02 0.02 97 1002.7
20171216181409 32 320 0.0 0.0 0.01 0.02 0.02 97 1002.8
20171216180412 32 320 0.0 0.0 0.00 0.01 0.01 97 1002.8
20171216173408 31 320 0.0 0.0 0.00 0.01 0.01 97 1002.1
20171216172410 31 320 0.0 0.0 0.00 0.01 0.01 97 1002.1
20171216171409 31 320 0.0 0.0 0.00 0.01 0.01 97 1002.2
20171216170408 31 320 0.0 0.0 0.00 0.01 0.01 97 1002.1
20171216165408 31 320 0.0 0.0 0.00 0.01 0.01 97 1002.0
20171216164410 31 320 0.0 0.0 0.00 0.01 0.01 97 1002.0
20171216163408 31 320 0.0 0.0 0.00 0.01 0.01 97 1001.8
20171216162410 30 320 0.0 0.0 0.00 0.01 0.01 96 1001.4
20171216161409 31 320 0.0 0.0 0.00 0.01 0.01 96 1001.4
20171216160410 31 320 0.0 0.0 0.00 0.01 0.01 96 1001.4
20171216155408 32 320 0.0 0.0 0.00 0.01 0.01 96 1001.2
20171216154410 32 320 0.0 0.0 0.00 0.01 0.01 96 1001.1
20171216153409 32 320 0.0 0.0 0.01 0.01 0.01 96 1001.1
20171216152408 32 320 0.0 3.0 0.01 0.01 0.01 96 1001.1
20171216151408 32 320 0.0 1.0 0.01 0.01 0.01 96 1000.9
20171216150410 32 320 0.0 3.0 0.01 0.01 0.01 96 1000.8
20171216144409 33 317 3.0 7.0 0.01 0.01 0.01 95 1000.5
20171216143408 33 298 1.0 6.0 0.00 0.00 0.00 95 1000.6
20171216142409 33 302 3.0 9.0 0.00 0.00 0.00 95 1000.5
20171216141410 33 301 2.0 3.0 0.00 0.00 0.00 96 1000.3
20171216140409 33 323 3.0 8.0 0.00 0.00 0.00 95 1000.2